TOMORROW-S2

Last updated on Mon Sep 16 2024 00:02:03 GMT+0000 (Coordinated Universal Time)

1 60485U 24149T 24258.90625899 .00016655 00000+0 81629-3 0 9993 2 60485 97.4437 334.0100 0003460 28.9646 331.1779 15.18205049 4413

Satellite not in orbit

TOMORROW-S2